Regional Weather Roundup
Issued by NWS

Current Version | Previous Version | Text Only | Print | Product List | Glossary On
Versions: 1 2 3 4 5 6 7 8 9 10 11 12 13 14 15 16 17 18 19 20 21 22 23 24 25 26 27
000
ASUS44 KLIX 301212
RWRLA
LOUISIANA WEATHER ROUNDUP
NATIONAL WEATHER SERVICE NEW ORLEANS LA
700 AM CDT FRI SEP 30 2022

NOTE: "FAIR" INDICATES FEW OR NO CLOUDS BELOW 12,000 FEET WITH NO
      SIGNIFICANT WEATHER AND/OR OBSTRUCTIONS TO VISIBILITY.
      SKY/WX - SKY CONDITION AND SIGNIFICANT WEATHER.
      TMP - AIR TEMPERATURE.    DP   - DEWPOINT TEMPERATURE.
      RH  - RELATIVE HUMIDITY.  PRES - PRESSURE.
      HX  - HEAT INDEX.         WCI  - WIND CHILL INDEX.

*  THESE STATIONS ARE NOT NWS OR FAA STATIONS AND ARE NOT UNDER
   NWS QUALITY CONTROL.

LAZ048-061-063-065-066-069-076-077-301300-
SOUTHEAST LOUISIANA

CITY           SKY/WX    TMP DP  RH WIND       PRES   REMARKS
N.O. INTL ARPT CLEAR     66  52  60 NE7       30.01R
6HR MIN TEMP:  66; 6HR MAX TEMP:  69;

N.O. DWNTWN HE FAIR      63  50  62 NE3       30.02R
6HR MIN TEMP:  63; 6HR MAX TEMP:  68;

N.O. LAKEFRONT CLEAR     65  52  62 NE20        N/A
6HR MIN TEMP:  65; 6HR MAX TEMP:  69;

RESERVE*         N/A     52  48  87 N5        30.03R
SLIDELL        CLEAR     49  46  90 N5        30.01R
6HR MIN TEMP:  49; 6HR MAX TEMP:  55;

BATON ROUGE    CLEAR     52  47  83 N5        30.04R
6HR MIN TEMP:  52; 6HR MAX TEMP:  57;

BOOTHVILLE*    CLEAR     72  60  67 N12       29.98R
BELLE CHASSE*  PTCLDY    53  52  96 NE3       29.99R
6HR MIN TEMP:  53; 6HR MAX TEMP:  65;

BOGALUSA*      FAIR      49  46  90 CALM      30.03R
6HR MIN TEMP:  49; 6HR MAX TEMP:  54;

GALLIANO*      CLEAR     59  52  76 N7        30.00R
6HR MIN TEMP:  54; 6HR MAX TEMP:  66;

NEW ROADS*     FAIR      51  47  86 NW3       30.06R
6HR MIN TEMP:  49; 6HR MAX TEMP:  54;

GONZALES*      FAIR      54  48  82 N5        30.02R
6HR MIN TEMP:  53; 6HR MAX TEMP:  59;

HAMMOND*       CLEAR     50  46  87 CALM      30.03R
HOUMA*         CLEAR     55  50  82 N6        30.01R

$$

LAZ041-044-053-054-301300-
SOUTHWEST LOUISIANA

CITY           SKY/WX    TMP DP  RH WIND       PRES   REMARKS
LAKE CHARLES   CLEAR     52  44  74 N5        30.06S
6HR MIN TEMP:  51; 6HR MAX TEMP:  57;

LAFAYETTE      CLEAR     53  46  77 N7        30.05R
6HR MIN TEMP:  53; 6HR MAX TEMP:  57;

PATTERSON      CLEAR    N/A N/A N/A N5        30.04R
SALT POINT       N/A     55  50  83 VRB6      30.02R
6HR MIN TEMP:  54; 6HR MAX TEMP:  57;

NEW IBERIA     CLEAR     50  45  83 N7        30.04R
6HR MIN TEMP:  50; 6HR MAX TEMP:  57;

CHENAULT AIRPK CLEAR     54  45  71 N8        30.07R

$$

LAZ027-028-301300-
CENTRAL LOUISIANA

CITY           SKY/WX    TMP DP  RH WIND       PRES   REMARKS
FORT POLK      CLEAR     53  45  74 N7        30.07R
6HR MIN TEMP:  53; 6HR MAX TEMP:  58;

ALEXANDRIA INT CLEAR     47  43  86 W3        30.07R
6HR MIN TEMP:  47; 6HR MAX TEMP:  54;

ALEXANDRIA     CLEAR     51  46  83 N3        30.08R
6HR MIN TEMP:  46; 6HR MAX TEMP:  53;


$$

LAZ001-002-301300-
NORTHWEST LOUISIANA

CITY           SKY/WX    TMP DP  RH WIND       PRES   REMARKS
SHREVEPORT     CLEAR     53  44  71 N6        30.12R
6HR MIN TEMP:  53; 6HR MAX TEMP:  63;

BARKSDALE AFB  CLEAR     49  42  75 N3        30.11S
6HR MIN TEMP:  48; 6HR MAX TEMP:  54;

DTN SHREVEPORT CLEAR     54  44  69 CALM      30.13R
6HR MIN TEMP:  53; 6HR MAX TEMP:  59;


$$

LAZ014-016-301300-
NORTHEAST LOUISIANA

CITY           SKY/WX    TMP DP  RH WIND       PRES   REMARKS
MONROE         CLEAR     50  46  86 N5        30.12R
6HR MIN TEMP:  50; 6HR MAX TEMP:  59;

TALLULAH       CLEAR     51  46  83 N3        30.09R
6HR MIN TEMP:  51; 6HR MAX TEMP:  58;


$$




USA.gov is the U.S. government's official web portal to all federal, state and local government web resources and services.